Wind_Speed
0 1 1 2 2 3 4 3 3 3 3 6 7 3 3 6 2 2 1 1 0 2 3 3 1 1 1 2 3 4 4 2 3 2 0 4 2 5 6 6 7 6 6 7 10 11 13 13 15 17 17 17 15 14 14 14 13 13 12 11 11 11 11 11 11 11 11 10 11 11 11 11 11 11 9 10 10 10 10 10 9 9 9 9 9 8 8 9 9 10 10 10 10 10 10 10 10
1 1 2 3 3 3 3 1 3 4 6 8 6 3 0 1 4 6 2 3 2 2 4 4 2 2 3 3 4 3 2 1 4 3 2 3 3 3 2 3 5 4 5 6 9 11 12 12 14 16 16 17 15 13 14 14 14 13 12 12 11 11 11 11 11 11 10 10 10 10 11 11 11 11 9 9 10 10 9 9 10 10 10 10 10 10 10 10 10 11 12 11 11 11 11 10 11
3 3 3 4 4 2 2 2 5 6 7 7 3 3 1 3 5 4 2 3 3 4 5 4 3 3 3 4 3 4 1 1 2 1 1 2 3 2 1 1 1 2 4 6 8 11 12 12 14 15 15 16 15 12 12 13 13 13 13 13 12 12 12 12 11 11 10 10 10 11 11 11 12 11 10 10 11 10 10 10 10 11 12 11 12 12 12 11 12 12 12 12 12 11 11 11 11
4 5 3 4 3 2 4 4 5 6 7 5 1 3 4 5 3 3 4 4 5 3 3 3 2 1 4 4 1 3 2 1 2 2 2 4 6 4 1 2 1 3 1 5 6 8 10 11 13 14 14 14 14 13 13 12 13 13 14 14 14 14 13 13 13 12 12 12 11 12 12 12 13 13 12 12 12 11 11 11 11 12 13 13 13 13 13 13 13 13 13 13 12 12 12 13 13
6 6 2 2 2 2 3 3 4 6 5 2 1 1 1 1 1 4 4 5 4 1 1 1 1 1 2 2 1 2 2 1 4 6 3 5 7 5 2 1 2 3 2 3 4 5 7 8 10 13 14 13 13 13 14 13 13 14 14 16 16 15 14 14 13 13 13 13 13 13 13 14 14 14 14 14 14 13 12 13 13 14 15 14 14 14 14 15 14 14 15 14 13 13 14 15 15
6 6 4 1 0 1 3 3 4 5 2 0 1 3 3 3 4 5 5 3 3 2 1 1 2 1 1 1 2 2 6 3 2 6 6 6 7 5 1 0 3 3 3 1 2 3 4 6 8 11 13 13 11 11 12 13 13 13 14 16 16 15 15 15 14 14 15 15 15 15 14 14 14 14 14 14 14 13 13 13 14 15 16 16 15 15 15 16 16 16 16 16 15 14 15 17 17
4 4 3 1 2 1 5 4 5 5 0 1 1 4 3 4 5 5 5 2 3 3 1 1 2 2 1 0 1 3 7 6 3 5 7 7 7 4 1 2 3 3 2 2 1 2 3 4 6 9 11 12 11 10 10 11 12 12 13 14 15 15 15 16 16 16 16 16 16 16 15 15 15 15 14 14 13 13 14 15 15 16 16 17 17 17 16 17 18 18 18 17 16 16 18 19 19
4 2 1 3 3 1 5 4 4 3 1 2 2 2 2 3 4 5 5 3 0 2 1 1 2 3 1 0 1 3 7 9 4 4 7 6 6 3 2 3 3 3 2 2 0 1 2 3 5 7 9 10 12 10 9 10 11 12 12 13 14 14 15 16 17 17 17 17 17 16 16 16 16 16 15 15 13 13 14 15 16 16 16 17 18 19 18 18 18 19 19 18 19 19 19 20 21
2 1 1 3 4 3 4 4 3 2 1 1 1 2 3 2 2 4 5 3 2 2 2 3 2 3 1 2 0 4 5 11 5 4 7 5 5 5 4 4 3 4 2 1 1 1 1 4 4 6 8 9 11 11 11 10 10 12 12 13 13 14 15 16 17 18 18 18 17 17 17 17 16 16 16 15 14 14 14 15 16 16 16 17 18 19 19 19 19 19 19 20 20 21 20 21 23
2 1 1 2 3 5 5 5 3 2 1 0 3 5 4 1 2 3 5 4 3 2 2 3 3 3 3 4 1 3 5 12 6 3 6 5 6 6 6 5 5 4 3 1 1 2 3 5 6 7 8 10 10 11 12 12 12 12 13 13 14 14 14 15 16 17 18 17 17 17 17 17 17 16 16 15 15 14 15 15 16 16 17 17 17 18 20 20 20 19 19 20 20 21 21 21 24
1 1 1 2 4 5 5 5 4 2 2 1 4 4 3 1 2 2 2 3 3 1 2 2 2 1 3 3 2 3 6 11 9 6 6 5 5 5 6 7 7 6 5 3 1 2 3 5 7 8 8 10 11 11 12 13 13 14 14 13 14 14 14 15 16 17 17 17 17 17 17 17 17 18 17 16 15 15 15 15 16 17 18 18 18 18 20 21 21 20 20 19 20 21 22 21 24
2 4 2 4 5 5 4 5 4 4 3 4 2 1 1 1 3 2 1 2 3 1 3 3 1 1 4 2 2 3 8 13 12 8 6 5 5 5 6 7 8 8 7 6 4 2 2 4 6 8 9 10 11 12 12 12 13 14 14 14 15 15 15 15 17 18 18 17 17 17 18 19 19 19 19 17 16 15 15 15 17 18 19 19 19 20 21 22 22 21 21 20 20 21 22 23 23
3 4 4 4 3 4 4 4 4 4 5 3 1 4 1 2 2 1 1 1 2 1 3 4 2 1 4 1 2 1 8 13 12 10 7 6 5 6 6 7 7 8 8 8 8 6 4 4 5 7 8 8 9 9 10 12 12 13 14 15 15 16 16 16 17 18 18 18 19 20 21 21 20 21 19 16 16 16 16 16 17 18 19 20 20 21 22 23 23 22 22 21 21 21 22 25 24
2 2 3 3 1 4 4 4 3 4 4 2 3 3 0 1 1 1 1 2 1 1 3 3 2 3 2 0 2 2 6 10 12 11 9 7 6 6 7 8 8 8 8 8 8 7 6 5 4 5 6 7 8 9 10 11 12 13 14 14 15 16 16 17 18 18 19 19 19 21 22 22 21 21 19 17 17 17 17 17 17 17 18 19 19 20 21 23 24 23 23 22 22 21 22 24 25
1 2 3 4 2 4 4 4 2 4 2 4 3 1 0 2 2 1 1 4 1 3 2 1 1 3 1 2 1 4 5 8 11 11 10 8 6 6 8 9 9 9 9 9 8 7 7 6 5 5 6 7 8 10 12 12 13 13 14 14 15 16 16 17 17 17 18 19 18 19 19 20 20 22 21 18 17 18 18 18 18 17 17 18 18 18 19 21 23 24 25 25 24 23 23 24 24
0 2 3 5 4 5 3 3 2 3 1 4 3 1 1 3 2 2 2 3 4 1 2 1 1 3 3 4 4 5 3 6 9 9 8 6 5 5 7 7 7 9 9 8 6 6 6 5 4 4 5 6 7 9 11 12 13 13 14 15 15 15 15 16 17 17 17 17 18 18 17 18 18 19 21 19 19 20 19 20 19 18 18 19 18 18 19 20 22 23 24 26 26 25 25 25 24
1 3 4 5 5 5 3 3 2 2 2 4 2 1 4 1 2 1 1 3 7 2 2 3 2 2 5 5 3 2 2 5 7 6 4 4 6 6 5 5 6 6 6 5 4 4 4 3 3 3 4 5 6 7 8 9 10 11 13 15 16 16 15 15 16 17 16 17 19 18 16 17 17 16 17 19 20 21 21 21 21 20 20 20 20 19 20 21 21 23 24 25 26 27 27 26 26
4 4 5 6 6 4 2 3 2 1 2 2 1 2 5 7 3 2 2 6 6 5 6 4 3 5 8 6 4 4 4 6 6 6 5 6 8 9 8 7 6 5 4 4 5 5 5 5 5 5 6 7 8 8 8 8 9 10 10 12 14 15 16 16 16 16 17 18 19 18 16 15 17 16 15 16 18 21 22 22 22 21 22 22 22 22 21 21 22 23 24 25 25 27 27 28 26
4 4 5 6 5 2 1 3 2 2 2 1 2 1 4 7 5 4 5 9 6 7 9 5 4 6 8 6 6 5 5 6 6 6 7 7 8 10 11 10 9 7 4 4 7 9 8 8 8 9 10 11 12 11 11 11 11 11 11 11 12 13 14 14 14 13 15 16 16 16 14 14 17 16 15 16 18 20 22 23 24 23 24 24 25 24 23 23 24 24 24 25 25 25 26 27 25
3 3 7 6 3 2 2 4 3 3 3 5 5 0 3 6 3 3 6 10 9 10 11 7 7 8 6 5 4 3 5 7 5 5 7 8 8 10 10 11 11 9 7 8 9 11 11 11 12 13 14 15 15 14 14 14 14 14 14 14 12 11 10 11 10 11 13 14 15 15 13 14 15 15 15 15 17 18 20 22 24 25 25 26 26 26 25 25 26 25 25 25 24 24 25 25 24
2 3 7 4 2 4 3 4 4 3 2 6 5 1 6 4 1 4 7 10 10 9 8 6 9 11 12 10 4 2 6 8 8 7 8 9 9 10 9 9 12 12 13 12 9 12 14 14 15 16 17 17 17 17 16 15 15 15 16 16 15 13 10 9 10 10 11 11 13 14 15 15 14 15 16 16 16 16 17 19 21 23 24 26 26 26 26 25 24 21 20 22 23 24 25 26 26
3 4 5 2 2 5 2 2 3 2 2 4 6 6 6 3 2 7 8 9 10 9 6 6 10 13 13 11 6 4 8 10 10 10 10 10 11 11 9 8 11 12 14 12 10 14 16 16 17 18 18 18 17 17 17 17 17 15 15 15 15 16 12 10 10 11 11 11 11 13 16 17 15 15 16 15 15 14 15 16 17 19 20 22 23 23 24 24 23 20 18 18 21 23 26 27 28
5 5 2 3 4 5 3 1 2 2 4 7 7 6 5 6 9 9 10 13 13 12 11 10 12 13 10 8 8 9 10 11 12 11 10 10 11 11 10 9 10 11 13 12 13 15 15 16 17 17 17 17 16 16 16 17 17 16 16 16 15 16 14 11 11 11 12 12 12 12 14 15 13 12 12 12 13 14 14 14 14 14 15 17 19 19 20 21 23 24 23 21 21 24 27 30 30
7 6 3 4 4 5 5 3 2 3 7 9 7 5 6 11 11 7 11 13 12 13 13 14 14 12 8 9 12 12 12 12 12 11 9 9 10 11 13 12 12 12 11 12 14 14 14 15 15 14 15 14 14 14 14 14 14 15 16 16 15 15 13 12 12 11 12 11 11 11 11 11 11 12 12 14 15 15 13 12 12 11 11 13 15 17 18 20 22 23 24 24 25 26 30 33 33
8 8 4 3 3 5 5 4 5 6 7 6 6 9 12 13 9 10 15 13 11 12 13 13 12 10 9 10 11 11 12 12 11 9 7 7 10 12 13 12 11 10 9 11 13 13 14 14 13 13 13 12 12 12 12 12 12 13 13 12 12 12 12 11 12 12 12 12 12 12 11 11 12 14 15 16 15 12 11 11 11 10 11 11 12 14 16 18 19 20 20 22 24 26 30 33 34
4 6 4 4 5 6 4 6 7 6 4 3 7 13 15 10 6 11 11 6 6 6 7 7 7 8 9 9 10 11 11 11 10 6 4 5 7 9 7 7 7 7 8 10 12 12 13 13 12 12 12 12 12 12 12 12 12 12 12 11 10 10 10 11 11 11 13 14 14 15 13 12 13 14 13 12 12 11 11 11 10 10 10 10 10 11 13 15 15 16 17 20 22 24 27 29 33
1 2 4 6 7 6 4 7 7 4 4 6 10 16 16 6 1 8 3 4 1 3 7 7 6 9 11 11 11 12 11 11 9 6 6 4 3 3 2 5 6 7 8 9 10 11 12 11 11 11 12 12 12 12 12 12 12 12 12 12 10 9 9 10 11 11 13 14 13 12 11 11 13 13 12 11 11 11 10 10 10 10 10 9 10 11 12 13 13 13 14 17 19 20 23 24 27
2 3 7 8 7 7 7 9 7 4 5 6 8 15 16 5 3 12 8 2 3 7 12 11 9 9 10 10 9 9 9 8 6 6 7 4 2 3 4 6 7 8 9 9 10 11 11 10 10 10 11 12 12 13 13 12 12 12 12 11 10 8 8 8 9 10 10 10 9 9 10 12 13 13 13 11 9 9 9 10 10 9 9 10 10 11 11 11 11 11 11 14 15 16 20 23 24
1 3 7 9 8 10 9 6 2 2 3 1 3 11 13 9 9 9 5 5 6 8 12 9 8 7 6 6 6 7 6 5 4 3 3 4 5 5 5 6 7 7 8 9 10 10 11 11 10 10 10 11 12 12 12 12 12 11 11 10 9 8 7 8 9 9 9 11 11 11 12 12 12 11 11 10 8 8 9 10 10 10 9 9 9 9 9 9 9 9 9 11 12 13 18 22 24
3 2 4 7 9 6 2 2 2 2 2 1 2 8 6 6 7 1 3 3 5 6 9 7 6 6 5 4 4 5 4 4 3 2 4 4 4 5 5 6 7 7 7 8 9 10 11 11 11 10 10 11 11 12 12 11 10 10 9 8 7 7 7 8 9 9 9 10 10 9 9 8 9 9 11 11 10 9 10 11 11 10 9 9 7 7 7 8 8 8 8 9 11 12 14 17 21
4 3 2 4 6 1 4 4 1 2 1 2 5 7 6 2 1 3 4 1 3 8 12 12 11 9 7 5 4 5 2 0 2 5 5 5 4 5 5 6 7 7 8 9 9 10 11 11 11 11 11 11 11 11 11 10 9 9 8 7 5 5 6 7 7 7 7 7 7 7 8 9 10 10 10 10 9 9 10 11 12 12 12 11 8 6 6 7 7 8 7 8 10 11 12 13 16
4 4 4 3 3 2 2 3 3 4 1 4 7 5 8 8 4 3 5 2 3 11 16 16 17 15 13 9 7 7 1 5 6 6 6 5 5 5 6 6 7 8 9 9 10 11 11 11 11 11 11 11 10 10 9 8 8 8 8 7 6 5 4 4 5 5 6 6 6 7 8 8 8 7 7 7 8 9 9 10 11 12 12 11 9 7 6 6 7 7 7 8 9 11 11 12 13
3 4 6 3 4 5 2 2 2 3 1 4 7 5 9 11 8 3 3 7 9 12 16 18 18 17 15 11 7 7 3 5 8 7 6 5 5 5 6 6 7 9 10 11 12 12 12 13 13 12 12 11 11 10 8 7 7 7 7 7 6 5 4 3 3 3 4 5 5 5 5 4 4 4 5 7 8 8 8 8 9 9 9 9 9 8 6 6 7 6 7 7 8 10 11 12 12
3 4 5 4 5 5 4 1 4 1 0 2 6 7 11 16 17 16 14 13 12 12 16 17 17 15 14 12 9 8 7 1 7 8 6 6 5 6 6 7 8 10 12 13 13 13 13 14 14 14 13 12 10 9 7 6 6 6 6 6 6 4 3 2 1 2 2 2 2 2 2 2 2 3 5 6 6 6 6 6 6 6 6 6 7 6 5 6 6 6 7 7 7 9 11 12 12
2 1 4 4 4 6 7 4 2 3 2 6 9 10 13 17 18 18 17 16 15 14 15 16 15 15 14 12 10 8 7 4 8 9 7 7 7 7 8 8 9 11 13 13 14 14 14 15 15 15 15 14 12 10 8 5 5 4 4 4 4 3 2 1 1 0 0 1 1 1 1 0 2 3 5 5 4 4 4 3 3 4 4 4 4 4 4 5 6 6 7 8 8 8 10 11 11
3 2 4 6 7 8 11 7 2 1 6 8 10 12 13 15 16 17 18 17 17 17 17 15 14 14 12 10 9 8 7 6 9 10 9 9 9 9 9 9 9 10 13 14 14 15 16 16 15 15 16 16 15 14 10 7 6 5 4 3 2 2 2 2 2 2 1 2 2 2 2 1 2 3 4 4 4 3 2 2 2 3 3 3 3 4 4 4 5 6 7 8 8 8 9 9 9
2 4 6 8 9 11 12 9 2 4 5 7 8 12 13 15 16 18 19 17 16 18 17 15 14 12 10 10 9 8 7 6 8 9 10 10 10 10 10 11 10 10 14 16 16 16 17 17 17 16 17 17 17 16 12 10 8 6 5 4 2 1 2 2 2 3 2 2 2 2 2 1 1 1 2 2 2 2 1 1 1 2 3 3 3 4 4 4 5 5 6 7 7 8 8 7 8
5 7 8 8 9 10 12 11 2 5 3 6 8 13 13 13 16 17 18 17 16 16 16 15 15 13 11 10 10 9 7 5 6 8 10 10 11 12 11 12 13 13 15 17 18 18 18 19 19 18 18 18 17 16 13 11 10 7 5 4 2 2 2 2 3 4 4 3 2 2 2 1 1 1 1 1 2 1 1 1 1 2 3 3 3 4 4 5 5 5 5 6 7 8 7 7 9
6 5 7 7 7 8 9 8 3 5 2 7 12 14 13 14 17 18 17 15 14 14 13 13 13 12 11 10 10 9 8 6 6 9 11 12 13 14 14 14 15 15 16 19 20 21 21 22 21 20 19 18 17 16 13 11 9 7 5 4 2 3 4 5 6 5 5 4 3 3 2 2 1 1 0 0 0 1 0 2 3 3 3 3 3 4 5 5 5 5 4 4 6 7 7 7 9
6 6 6 7 7 6 5 3 4 3 5 9 13 13 12 14 13 12 12 10 11 12 11 10 8 8 8 8 7 8 8 7 7 9 11 13 14 15 15 15 15 16 17 19 21 21 21 22 22 21 19 19 18 16 12 9 8 7 6 5 4 4 6 7 7 6 6 6 5 5 3 2 3 3 2 2 2 1 2 3 4 4 4 4 4 5 5 5 5 5 4 3 4 6 6 6 8
6 7 8 8 8 8 8 6 6 7 6 4 10 10 6 4 2 3 4 4 6 6 6 7 3 2 4 6 6 7 8 7 7 8 10 11 12 13 14 14 14 15 16 17 18 19 18 19 21 20 20 19 18 17 12 9 8 7 6 6 5 5 6 6 7 8 8 8 8 8 6 5 5 5 5 4 4 4 5 5 5 5 5 4 5 5 5 5 5 5 4 3 3 4 6 5 7
5 7 10 11 11 10 10 9 7 7 3 3 8 9 2 3 2 3 4 4 4 2 4 7 3 5 6 5 6 7 7 7 7 7 8 9 11 11 12 14 14 14 14 14 15 16 16 17 19 20 20 21 19 18 14 11 9 9 7 7 8 8 8 9 9 9 10 10 10 10 9 7 6 5 6 6 6 6 6 6 7 6 5 5 5 6 5 5 5 4 4 3 3 4 5 6 7
5 2 5 8 9 9 9 8 5 5 4 3 4 5 5 2 1 3 4 4 4 1 2 5 5 7 6 6 6 6 6 6 6 6 7 8 9 9 10 11 12 12 12 12 12 14 15 16 18 19 20 20 20 18 15 12 11 11 10 9 9 10 10 10 9 9 10 11 10 10 10 9 8 7 8 8 8 8 7 7 7 7 6 6 6 6 5 5 5 4 4 3 2 3 4 5 5
3 2 1 4 5 7 6 6 5 4 6 3 3 6 8 5 1 1 3 2 1 1 3 3 6 7 7 7 6 5 5 4 4 5 6 6 7 7 8 9 9 9 10 11 12 13 14 15 17 17 17 18 17 16 14 13 12 13 12 10 10 11 10 9 9 10 11 11 11 12 12 12 12 11 10 9 9 9 9 8 8 7 7 7 6 6 6 6 5 4 4 3 3 2 1 2 2
1 3 0 1 2 4 4 5 6 4 5 4 5 6 6 5 3 1 3 2 5 5 5 4 5 6 6 6 5 5 4 4 4 3 4 5 6 7 8 8 8 9 10 11 11 12 13 14 15 15 14 14 14 13 12 12 11 11 12 12 12 11 10 9 9 10 12 12 13 14 14 14 14 14 13 12 11 11 11 10 9 9 9 8 8 7 7 7 6 6 6 5 5 5 4 3 1
2 4 1 1 1 1 2 4 4 3 4 6 5 7 5 4 3 4 2 4 6 4 3 3 3 5 5 5 4 3 3 2 3 4 5 6 7 8 8 9 10 10 11 11 11 12 13 14 15 14 14 13 13 12 11 11 10 11 12 13 13 12 11 10 11 12 13 13 14 15 16 16 16 17 16 15 14 14 13 12 12 11 11 10 9 8 8 8 8 8 8 8 8 8 8 7 6
3 3 2 3 3 2 1 2 2 3 5 5 5 7 6 3 2 4 2 5 5 3 5 4 2 5 5 3 2 1 1 2 3 5 7 8 9 9 9 11 12 12 12 13 13 14 14 15 15 16 16 15 14 13 12 12 13 13 14 14 14 14 13 13 13 14 14 14 15 15 15 16 17 18 18 17 16 16 15 14 14 13 13 12 10 9 8 8 8 8 9 10 11 11 11 10 9
2 3 3 3 2 2 2 2 3 4 4 1 1 3 6 6 2 2 3 4 3 4 6 6 4 4 4 2 2 3 4 5 6 7 8 9 10 11 13 13 14 14 15 15 15 14 15 16 16 17 18 17 16 15 14 14 15 15 15 14 14 14 14 15 15 15 15 15 15 15 15 16 17 18 19 19 18 18 16 15 15 15 15 14 13 11 10 8 7 8 10 12 13 13 12 11 12
3 3 2 3 3 2 3 2 2 4 3 2 4 1 5 8 7 6 4 1 2 4 4 5 7 8 7 6 6 6 6 7 8 7 9 11 12 13 15 15 15 15 16 16 16 16 15 16 17 18 19 18 17 16 16 16 16 16 16 15 15 15 15 15 16 16 16 16 16 16 17 17 18 19 19 19 19 18 18 17 16 16 16 16 14 13 13 11 10 11 13 13 14 14 14 13 14
4 3 2 3 4 4 6 4 3 4 3 2 4 1 5 7 5 4 2 3 6 7 7 8 8 9 10 9 8 7 8 8 8 8 9 11 13 13 14 15 15 16 16 16 16 16 16 17 18 18 19 18 17 17 17 17 17 18 17 16 16 15 16 16 16 17 17 16 17 17 18 18 18 18 19 19 19 18 18 18 17 17 16 16 15 14 13 13 12 12 14 15 15 15 15 15 15
3 1 2 4 4 5 6 5 4 6 7 2 3 2 4 2 2 4 5 8 8 7 7 7 7 8 7 6 7 7 8 8 8 8 9 11 12 13 13 14 14 15 16 16 16 17 17 17 18 18 19 19 18 18 18 19 19 19 18 18 18 17 17 17 17 17 17 18 18 18 19 19 18 17 17 17 17 17 18 18 18 18 17 16 15 15 14 14 13 13 14 15 15 15 15 15 15
2 0 2 3 3 4 5 7 7 7 10 7 3 3 4 2 3 4 6 11 11 9 9 10 10 10 7 6 7 7 7 7 7 7 9 12 13 13 14 14 14 15 16 17 17 18 17 17 18 18 19 19 19 19 19 20 20 19 20 20 20 20 19 19 20 20 20 20 20 20 20 20 19 18 17 17 18 18 18 18 19 19 19 18 17 17 17 16 16 16 15 15 15 15 15 14 14
2 2 2 1 2 3 6 8 6 4 8 6 2 4 6 4 2 4 8 13 14 12 12 12 12 12 10 8 7 7 6 7 7 8 10 12 13 14 14 15 15 16 16 18 18 18 18 17 18 18 19 20 20 20 20 20 21 22 23 23 22 23 23 23 22 22 22 22 23 23 22 22 22 22 21 20 19 19 19 19 20 20 21 21 20 19 19 19 19 19 18 18 16 15 15 15 15
2 2 0 2 0 1 2 5 5 5 8 7 5 8 8 6 3 3 8 12 13 13 12 12 13 14 12 10 7 7 7 7 8 9 11 12 13 14 14 15 15 16 16 17 17 17 17 17 18 19 19 20 20 21 23 24 26 27 27 27 27 26 26 26 25 25 24 24 25 25 24 24 24 23 23 22 21 21 21 21 20 21 21 21 20 20 20 20 21 21 20 20 19 18 17 17 17
1 1 1 1 3 3 2 3 6 7 9 8 9 10 7 7 4 4 9 11 12 13 13 13 15 15 12 9 7 7 7 7 8 8 10 12 13 14 14 14 15 16 16 16 16 17 17 18 18 19 20 20 21 23 26 28 30 30 29 29 29 29 28 28 27 26 26 26 26 25 25 25 24 23 23 24 24 23 23 22 21 21 21 20 20 20 20 21 21 21 21 20 20 20 20 20 19
2 1 2 0 2 5 4 3 4 6 9 9 10 9 4 1 2 7 8 8 10 12 12 12 14 13 11 9 8 7 7 7 7 7 9 11 12 13 13 14 14 14 15 15 16 17 17 18 19 20 20 21 23 24 25 26 27 29 28 28 29 29 29 29 28 28 28 27 27 25 25 24 23 23 23 24 24 24 24 24 22 21 21 20 20 20 20 21 21 22 21 21 20 20 20 21 20
3 4 3 2 2 2 3 4 3 5 9 8 8 10 4 3 5 7 8 8 10 10 10 9 10 11 10 10 9 7 7 8 7 8 9 10 11 11 11 11 11 12 13 14 15 16 17 17 18 19 19 20 21 22 23 23 24 26 27 26 27 27 27 28 28 28 28 27 27 26 25 23 22 22 22 22 23 23 24 24 23 22 21 19 19 19 19 19 19 21 22 21 21 20 20 20 19
5 5 5 5 4 3 5 7 4 4 7 7 6 12 6 3 4 6 9 8 9 9 9 8 9 10 9 9 9 9 8 8 8 8 9 9 10 10 10 10 10 11 12 13 14 14 15 16 17 17 18 19 20 20 21 21 23 26 27 27 27 28 28 28 28 27 27 26 25 25 24 23 23 22 21 20 20 20 21 23 24 23 22 20 18 17 18 16 16 18 20 22 22 21 21 20 19
Wind_Direction
332 323 145 132 154 189 191 220 191 177 227 229 225 195 174 199 230 278 214 69 256 52 34 4 302 228 260 313 329 325 328 313 340 322 15 41 111 147 121 87 80 114 138 160 171 176 178 184 186 185 187 192 194 194 201 207 210 211 213 214 215 219 219 222 227 228 225 222 218 215 215 214 215 215 214 216 221 227 234 232 230 243 241 228 226 229 228 221 219 217 216 214 210 211 211 209 202
126 95 119 134 158 206 170 261 226 176 207 222 218 199 99 188 220 238 229 52 30 9 337 321 264 253 295 309 319 290 252 268 335 342 27 49 125 128 140 99 65 108 150 163 171 179 182 191 193 187 188 194 197 195 201 208 214 216 218 220 221 224 224 224 227 230 232 233 233 232 232 230 229 228 224 224 226 226 233 236 232 240 242 237 234 234 234 229 227 224 220 215 209 212 216 213 208
115 102 122 161 163 236 158 221 230 190 203 217 197 159 214 238 224 251 1 15 329 326 301 284 238 238 244 227 247 268 250 154 277 257 33 51 91 46 283 200 50 84 160 171 173 184 187 197 199 192 189 195 200 202 207 211 217 222 224 227 228 230 230 227 228 232 237 238 240 243 245 246 244 241 237 235 235 232 233 237 236 240 242 242 241 239 238 236 236 232 227 219 212 214 218 218 216
107 106 141 197 179 198 187 205 227 208 210 214 167 149 216 235 248 333 11 337 315 317 289 264 219 222 251 244 229 261 265 157 49 22 40 46 17 354 265 217 27 26 145 173 179 189 195 203 202 197 191 191 200 207 214 216 220 226 228 232 233 234 235 235 235 237 242 244 245 246 248 253 253 252 249 246 243 239 236 235 236 238 241 244 244 242 242 242 242 238 231 224 219 218 219 221 223
106 99 107 260 214 187 196 205 219 218 218 188 116 123 191 206 319 354 352 331 344 352 292 283 255 63 256 282 295 260 337 83 60 35 24 36 3 348 200 195 43 16 30 161 185 194 208 213 205 203 198 192 195 206 216 218 221 227 228 232 235 236 238 240 240 239 242 246 248 248 249 253 256 256 255 254 250 244 241 238 237 237 238 242 245 244 242 244 243 242 235 227 225 221 221 224 228
105 94 72 20 315 302 217 201 210 216 216 147 124 99 100 62 14 347 338 344 55 74 353 331 341 359 217 297 279 344 14 336 18 33 5 356 349 356 75 72 42 24 27 104 177 185 220 221 210 208 207 203 200 206 216 222 226 230 231 234 238 240 241 241 242 243 244 247 250 251 253 254 255 257 256 255 253 247 245 245 245 244 241 240 242 244 244 243 241 242 238 228 226 225 224 227 232
142 130 78 125 129 285 226 210 218 211 119 311 345 80 79 25 359 332 342 15 125 107 52 342 327 284 226 326 264 41 31 6 350 15 358 349 348 349 42 47 44 35 40 51 160 189 214 211 208 212 214 214 213 213 220 229 233 238 241 241 244 246 248 248 248 249 248 250 251 252 253 254 256 258 257 255 252 248 247 248 249 250 248 245 242 242 244 243 241 243 241 231 225 227 230 231 234
163 157 333 218 171 229 229 218 229 217 89 351 332 13 348 345 339 319 336 340 77 54 13 359 291 262 116 279 279 79 38 24 26 28 14 9 7 352 31 45 49 43 67 82 222 206 205 202 205 211 215 220 220 220 228 236 239 243 246 247 249 250 252 253 254 253 252 252 253 252 252 254 257 259 260 259 253 249 250 251 252 254 254 252 246 242 244 245 245 246 245 237 227 224 231 235 237
99 82 205 226 195 211 224 220 225 224 226 331 313 306 309 310 301 299 310 320 353 360 348 13 300 270 34 294 315 109 33 21 42 41 17 16 24 15 19 23 32 25 24 83 194 208 201 199 200 210 213 221 223 225 233 242 245 248 249 250 251 253 255 256 258 258 256 255 255 255 254 256 258 259 260 260 254 251 252 253 254 256 256 255 250 245 247 249 250 251 249 246 235 224 229 237 239
44 24 165 203 213 214 219 222 209 185 177 272 300 297 300 296 232 259 299 321 1 356 23 3 279 283 339 293 23 92 1 14 32 18 7 11 26 25 12 3 10 10 359 16 194 203 211 207 205 210 216 221 226 230 234 241 248 252 254 254 253 253 256 258 259 260 260 260 261 259 259 260 260 257 256 255 254 255 253 253 255 257 258 256 254 251 251 252 253 255 253 254 248 234 230 236 239
135 89 141 198 216 220 222 221 216 215 160 244 278 281 296 310 243 224 273 302 358 19 65 335 258 339 309 268 66 33 353 15 27 18 20 16 14 19 11 3 4 7 7 9 283 224 218 219 215 213 218 223 228 233 235 240 247 253 255 258 261 259 258 259 259 260 261 264 265 261 261 262 261 256 251 250 254 258 258 258 259 261 263 261 259 256 255 255 255 257 257 256 255 247 239 237 239
195 149 180 216 222 226 232 241 248 268 253 260 257 123 35 267 237 217 223 300 359 60 76 360 329 343 267 191 81 19 17 20 24 26 34 25 7 1 3 7 7 10 13 15 3 324 267 245 233 224 222 225 229 234 236 240 246 252 255 257 262 265 263 262 261 260 260 262 261 259 258 258 258 255 251 250 252 259 263 263 263 266 268 267 265 261 257 257 257 257 258 257 255 253 247 243 239
220 163 198 217 240 241 241 258 263 279 266 254 126 96 58 234 221 4 17 312 305 204 66 16 344 255 265 102 109 39 30 20 19 26 26 22 12 355 351 358 2 8 12 15 13 0 338 304 267 249 242 243 247 248 249 247 248 251 255 257 259 264 265 266 267 265 262 260 258 257 257 257 255 254 253 251 251 257 265 269 270 271 272 273 272 268 262 260 261 261 260 259 259 257 253 247 238
219 177 231 215 258 259 246 262 255 260 260 106 96 88 188 214 80 46 329 286 231 72 31 10 314 264 269 155 159 102 36 20 19 22 20 12 4 353 345 347 350 355 360 8 11 11 3 343 317 289 277 273 272 272 270 265 261 257 258 258 259 262 265 267 268 268 269 268 265 264 266 269 266 258 252 248 250 255 264 270 272 274 276 277 276 275 271 266 265 267 267 265 264 264 261 254 241
240 176 243 229 225 246 231 249 272 265 255 87 81 38 57 134 112 227 321 312 22 68 336 285 273 291 351 315 308 73 39 20 21 20 20 12 360 348 345 348 351 350 348 354 358 3 4 359 348 325 310 298 289 284 281 279 276 273 269 265 263 264 267 271 273 273 274 276 279 280 282 286 280 266 256 248 249 254 260 266 268 270 274 276 277 277 275 273 270 269 271 270 270 269 267 267 257
261 186 222 235 229 235 209 205 259 275 283 81 83 339 300 132 144 297 26 322 308 89 284 245 207 306 333 309 342 60 42 18 23 18 18 7 356 349 351 358 355 350 348 350 349 352 352 353 346 328 321 311 302 295 288 285 281 279 277 274 271 267 266 268 275 278 277 280 283 285 288 293 289 272 263 257 254 255 258 262 266 268 270 273 276 277 275 275 274 273 271 271 271 271 271 272 269
167 206 223 232 228 229 195 191 220 315 39 87 105 37 321 319 149 313 118 248 280 284 283 262 194 265 273 294 352 49 339 357 8 2 354 341 345 342 340 352 351 348 353 346 327 324 325 320 315 301 301 300 301 298 295 294 290 286 280 276 275 273 270 265 267 273 279 282 280 280 283 289 288 277 267 264 260 259 260 260 264 268 269 273 278 278 276 275 275 273 271 270 271 271 272 272 272
193 208 222 231 231 228 209 226 216 354 3 103 112 23 320 310 328 12 288 251 264 285 284 255 213 238 248 264 281 268 286 321 340 332 321 327 334 333 327 330 336 331 331 317 291 282 280 280 282 284 290 296 298 296 293 295 296 299 293 283 278 277 275 270 264 264 269 275 280 279 279 284 282 275 265 262 265 265 266 264 265 270 271 274 277 276 275 275 274 272 270 269 268 269 271 272 272
216 213 225 235 234 220 196 242 214 244 295 319 281 324 299 302 330 355 306 290 291 293 289 265 248 252 241 240 243 250 268 285 314 312 307 315 325 327 322 322 323 320 318 301 284 279 277 278 279 282 288 294 299 298 293 290 292 297 300 295 287 281 277 274 267 263 264 267 279 280 276 283 283 279 270 268 276 276 272 268 269 270 271 273 275 275 275 277 277 275 274 270 269 269 268 268 266
221 219 239 245 237 232 221 225 229 242 281 295 283 272 274 280 307 314 297 296 294 283 282 275 283 292 282 269 236 231 261 269 282 284 288 300 311 315 314 317 315 315 307 294 290 284 282 283 284 285 288 292 296 296 294 291 290 290 294 295 292 285 275 270 267 266 267 263 272 275 270 278 282 279 275 277 283 280 272 269 272 270 269 271 273 274 275 279 280 278 276 273 270 269 269 266 261
202 212 252 259 206 239 226 213 245 264 250 276 283 250 271 278 218 260 282 291 283 275 277 276 289 299 299 300 301 276 282 283 283 275 277 289 300 304 304 306 303 302 296 292 291 285 284 287 288 290 292 294 294 292 291 288 288 289 289 291 292 288 277 269 266 265 267 262 266 267 265 274 281 278 274 275 280 283 279 275 275 273 270 271 271 272 276 279 277 275 274 273 272 268 268 268 264
204 216 268 280 189 245 238 196 248 260 236 262 269 268 287 318 232 245 259 271 272 281 294 288 284 288 296 305 310 292 283 282 283 278 277 285 292 296 296 295 296 295 292 291 284 282 287 290 291 294 296 297 296 292 290 287 288 289 287 287 289 289 283 275 270 267 267 267 268 267 267 273 281 283 280 278 282 290 289 284 281 279 277 275 272 271 276 275 267 264 265 269 270 265 265 267 267
241 222 242 236 221 253 267 276 230 223 264 272 278 293 309 286 274 260 245 253 263 279 290 286 278 276 287 297 285 278 274 274 273 269 268 274 280 288 290 288 290 285 287 290 286 288 292 292 294 296 297 298 298 296 292 291 292 292 289 287 286 285 283 276 273 272 270 269 272 275 273 271 273 279 281 281 284 287 287 285 284 281 280 279 277 274 274 270 265 264 261 260 261 260 262 264 264
249 244 223 235 232 251 268 287 261 263 270 277 296 304 283 269 277 272 246 254 263 270 272 269 267 265 265 268 267 268 267 265 262 260 259 264 269 272 275 275 277 280 287 291 293 300 301 300 304 302 301 300 302 301 298 297 297 296 295 293 288 285 282 276 274 272 269 267 266 270 270 269 274 278 280 283 286 286 285 283 280 277 276 278 278 275 275 272 270 269 265 262 260 258 260 261 261
238 253 249 242 241 252 267 280 267 270 265 273 286 273 269 265 275 280 268 270 267 262 262 259 258 255 250 251 256 259 261 260 255 254 249 251 263 265 268 271 277 288 298 299 301 308 309 311 314 310 310 307 306 307 307 306 303 303 303 298 289 284 283 278 277 273 268 265 265 269 269 267 275 277 278 282 285 283 281 278 274 273 273 272 271 269 271 272 271 270 268 266 263 259 257 259 260
236 254 273 265 270 275 270 273 267 268 265 266 273 272 273 269 279 284 276 271 261 258 257 252 251 258 262 260 263 268 270 271 267 264 253 244 257 259 268 281 295 308 308 312 315 315 316 319 320 320 319 315 315 313 312 312 310 311 309 303 293 286 284 279 278 275 270 267 269 276 278 273 274 275 274 275 275 274 274 275 274 274 273 269 267 267 270 274 274 269 267 266 262 259 257 258 258
18 280 296 278 280 291 270 272 270 270 273 253 262 276 280 279 267 270 258 113 175 273 270 269 276 277 282 283 284 286 285 285 292 299 283 265 250 255 302 318 329 327 320 328 328 323 325 327 325 323 322 320 319 317 314 312 311 311 309 306 297 289 286 281 280 279 278 275 270 271 270 269 270 270 270 268 269 272 274 275 275 274 273 272 270 271 273 275 275 271 268 265 262 261 261 258 251
17 303 290 272 274 277 257 262 269 266 269 248 257 278 278 255 213 259 264 266 282 290 283 284 285 281 286 292 298 298 294 298 310 303 294 312 4 10 13 355 348 341 339 339 332 332 333 331 327 324 323 319 316 316 312 309 309 312 312 309 299 288 277 275 278 273 270 264 257 258 259 260 260 260 262 265 270 276 276 275 274 273 273 277 276 272 272 272 272 271 268 266 263 262 260 253 243
257 285 289 282 278 274 260 255 258 232 251 253 269 281 269 224 225 256 277 297 296 286 282 284 278 276 284 292 301 299 301 309 306 304 332 17 22 20 24 5 355 351 348 340 338 341 337 337 335 327 325 321 318 317 313 310 311 316 319 318 309 296 273 262 263 256 249 250 254 259 259 256 255 255 260 266 274 277 278 277 276 276 274 277 277 273 271 270 270 271 270 271 268 263 259 252 243
249 249 293 295 286 277 236 123 99 201 229 97 254 284 279 190 201 189 69 319 309 293 290 297 284 279 274 268 284 291 297 310 321 66 56 44 36 31 30 10 5 2 353 346 343 343 341 343 338 332 331 327 325 322 319 318 317 317 320 322 316 299 276 263 260 255 252 255 257 257 256 258 262 266 271 275 279 278 281 282 280 276 273 276 277 274 275 272 273 274 273 274 273 266 261 256 247
270 281 257 270 279 265 122 132 175 236 143 145 212 266 284 253 187 92 94 23 348 321 310 307 296 291 286 277 279 282 268 77 59 84 75 58 49 39 35 21 14 11 6 358 354 351 348 346 341 340 338 332 330 326 323 324 326 325 320 320 313 293 274 262 259 256 256 257 259 263 267 271 275 278 280 281 282 282 285 284 281 278 277 280 278 277 284 282 280 280 276 275 277 273 264 257 250
258 274 249 222 243 253 175 169 219 255 113 163 213 264 289 295 316 119 134 173 306 309 303 300 296 294 294 292 291 295 287 126 110 90 76 57 40 29 26 20 18 16 14 6 2 2 356 352 349 347 343 339 336 330 329 331 337 337 330 326 316 300 282 268 265 262 262 264 266 271 272 271 271 271 276 283 286 289 289 283 280 280 282 284 283 285 295 295 290 288 284 278 277 278 273 263 255
215 234 262 257 249 286 304 123 141 260 186 172 218 273 298 297 303 274 242 273 290 299 296 293 293 294 297 297 296 303 310 130 120 98 79 62 42 33 24 23 25 19 17 13 9 8 4 1 357 355 351 348 345 339 339 345 348 347 343 335 325 313 299 286 281 275 270 268 263 261 261 260 261 262 279 289 291 292 291 287 285 286 289 292 293 295 300 302 299 294 290 285 278 278 277 270 263
201 205 258 264 251 283 295 139 104 124 340 259 245 259 277 284 294 297 295 295 292 289 288 290 293 295 298 300 302 305 311 37 109 101 92 82 64 54 43 35 32 24 20 17 14 12 10 8 5 2 358 358 0 355 352 356 350 345 349 343 337 331 313 300 283 270 259 256 248 230 229 235 257 283 296 294 289 287 287 288 290 293 296 303 306 307 306 306 306 300 292 286 283 279 276 274 270
302 249 278 283 267 262 267 269 122 120 306 296 278 268 273 283 291 298 302 303 299 292 290 292 292 293 295 298 305 311 322 20 89 93 89 80 65 55 46 40 36 29 24 20 19 17 15 14 12 8 5 6 9 8 5 1 344 339 351 345 336 345 2 38 69 57 116 122 138 142 142 230 289 296 296 290 276 268 269 270 288 304 314 322 326 326 325 320 314 308 299 290 284 279 276 277 274
335 319 299 296 297 277 275 283 146 105 298 279 274 277 283 291 295 298 300 301 299 295 296 296 293 294 299 307 315 327 347 43 80 81 75 67 56 50 44 42 40 32 27 25 24 21 19 18 17 15 12 11 11 11 11 3 352 339 331 325 326 19 47 45 55 59 61 70 90 97 68 6 307 295 280 269 255 245 248 256 286 309 329 348 352 342 339 336 327 316 307 297 289 282 278 277 276
290 287 285 282 288 282 288 299 112 92 311 275 267 280 286 290 294 296 295 296 296 294 297 297 295 302 313 321 332 350 16 65 86 75 68 60 51 47 42 40 38 34 29 28 28 26 25 23 22 20 17 16 16 15 12 5 1 348 331 330 340 23 51 43 42 45 45 52 67 74 63 37 318 292 255 246 244 244 257 273 282 307 331 354 5 357 346 339 334 326 316 305 294 287 281 275 277
258 271 282 280 276 276 291 304 6 89 317 290 287 289 291 291 289 287 289 294 294 293 295 295 301 311 319 330 345 3 26 71 84 62 53 48 41 37 36 34 31 30 26 26 28 27 25 25 25 24 19 18 18 16 17 11 2 354 342 339 341 2 36 47 42 44 46 42 34 27 16 344 297 286 260 240 252 251 245 323 354 354 335 346 9 9 358 345 336 335 331 316 299 288 277 271 272
253 257 272 271 275 284 286 292 31 77 306 302 307 302 297 287 280 278 282 286 285 285 288 294 306 311 317 341 354 359 13 33 50 43 35 33 31 29 30 28 26 25 24 23 24 24 25 24 24 26 21 16 14 12 17 20 6 356 352 347 8 47 56 61 56 52 47 36 25 12 352 333 325 328 343 35 256 249 78 43 32 17 348 347 11 12 5 1 349 344 340 320 304 290 274 267 257
241 242 257 261 277 296 281 277 46 31 279 291 302 297 287 276 266 269 276 277 277 283 293 300 302 308 330 9 18 12 16 23 36 37 28 26 27 27 26 23 22 23 23 22 22 22 24 23 24 26 20 13 10 6 12 26 15 6 12 16 31 57 63 63 59 54 48 42 41 36 30 32 34 37 41 48 52 39 37 38 38 32 17 11 25 26 14 9 1 350 344 327 311 294 279 268 248
234 230 244 260 273 277 275 289 325 309 267 279 309 299 280 262 233 276 277 259 271 291 317 316 314 38 32 48 54 45 39 36 38 36 29 27 26 27 26 23 23 25 24 21 21 22 22 22 25 27 21 14 12 8 9 20 17 7 10 15 18 28 38 39 33 34 39 43 45 43 40 42 47 46 43 48 52 44 39 36 31 36 40 36 38 39 25 12 8 1 351 343 322 297 290 281 261
256 225 232 252 271 275 278 289 310 304 264 77 358 322 287 133 120 297 278 257 272 327 344 321 352 69 66 59 57 57 57 55 52 45 37 32 29 28 27 25 24 25 23 21 24 27 27 26 28 28 23 19 16 13 11 14 15 10 8 15 17 18 24 28 25 27 39 46 50 51 48 48 55 55 47 48 51 47 45 40 30 27 36 39 37 37 32 18 11 6 360 348 312 285 287 285 271
274 220 215 239 258 267 274 284 293 295 295 47 29 308 278 234 195 272 274 275 287 340 350 328 10 45 55 57 55 56 56 62 65 57 48 41 35 32 30 28 26 24 22 22 26 29 29 29 28 24 20 17 15 13 12 16 24 26 27 32 34 36 40 37 34 45 56 58 59 60 59 57 58 59 57 56 55 51 49 49 43 33 35 41 40 36 33 27 17 9 7 359 328 291 281 282 274
274 90 148 213 236 254 259 273 266 281 310 307 197 233 273 279 177 267 288 278 280 71 54 32 45 48 50 54 56 58 55 57 64 62 58 50 43 39 36 33 30 26 22 23 26 27 28 28 26 21 14 12 11 11 15 22 32 37 35 39 44 48 50 40 37 54 62 63 64 64 64 63 61 60 62 60 58 56 55 57 56 50 49 50 46 39 33 32 30 28 29 25 17 12 329 285 269
344 91 159 203 229 265 261 270 271 286 313 287 202 200 266 280 155 189 280 161 131 107 71 40 47 50 49 56 59 64 66 63 65 72 68 57 49 42 38 34 30 28 26 25 27 27 28 28 27 22 15 14 12 12 20 29 39 47 46 47 49 51 51 45 44 55 58 57 59 61 63 64 64 64 63 64 65 66 65 62 63 65 64 63 59 52 47 47 47 48 53 57 56 57 60 68 69
72 116 142 160 189 256 263 271 277 289 281 270 237 205 251 295 149 158 202 140 122 96 34 12 72 67 46 50 58 70 91 91 85 79 64 53 45 36 31 29 28 26 25 26 28 29 28 29 29 28 28 28 24 21 30 39 48 59 61 59 55 51 51 52 52 53 52 49 48 51 56 57 58 61 62 65 68 69 67 65 67 69 70 71 69 61 54 52 55 56 60 69 77 79 74 71 71
112 159 235 239 211 193 210 257 260 274 259 251 249 216 225 283 138 141 139 112 91 31 338 324 94 84 49 35 40 74 101 75 63 56 50 45 38 32 27 27 26 24 24 24 26 27 28 29 30 33 35 34 34 35 41 49 56 62 65 67 63 54 50 51 51 47 42 39 36 34 40 45 48 53 57 60 63 65 66 67 70 73 76 77 72 65 57 45 49 62 69 76 81 81 80 78 76
188 232 281 270 235 186 187 165 168 247 261 152 74 205 213 237 220 150 135 111 56 327 312 312 329 24 32 13 7 27 31 34 38 37 35 31 26 25 24 24 23 22 23 23 24 25 27 28 29 33 35 33 36 40 44 50 55 57 59 62 64 61 54 46 40 38 35 32 28 23 26 32 38 45 50 51 55 59 60 63 71 75 76 77 72 71 70 54 48 67 77 81 81 80 81 80 78
215 230 250 269 287 262 245 243 204 248 269 94 80 111 229 247 261 265 246 198 342 327 341 349 347 350 357 12 23 29 32 32 33 31 28 25 22 21 20 19 20 21 21 21 22 23 25 27 29 33 34 31 34 39 42 47 51 52 52 51 55 61 61 53 41 34 31 27 24 22 20 21 25 32 36 38 43 49 52 56 64 70 71 73 73 75 77 70 64 72 79 81 80 77 78 79 78
197 208 229 275 300 292 274 275 268 273 275 122 101 93 257 263 270 262 245 54 34 25 25 21 12 359 360 15 22 28 36 36 34 32 31 28 24 21 19 19 20 20 20 20 22 23 25 26 29 33 34 32 35 39 42 47 49 49 49 50 53 56 56 55 49 40 35 31 27 25 22 20 18 19 22 27 34 41 48 53 59 66 70 71 72 73 74 73 71 73 76 79 77 74 76 79 78
178 213 283 274 281 274 278 294 294 297 299 270 131 146 262 277 102 121 96 70 56 46 40 34 28 16 7 17 25 30 36 35 37 38 36 34 28 24 24 22 22 22 21 23 23 24 27 28 31 34 34 34 37 41 43 46 48 49 51 52 56 57 55 56 55 51 47 42 34 31 28 23 19 16 19 26 31 37 46 54 58 63 65 66 69 70 69 69 73 72 71 74 76 76 79 78 75
140 114 254 264 299 273 275 293 294 299 299 280 187 203 255 240 140 150 105 75 63 51 51 44 32 22 12 19 30 34 38 36 36 39 37 35 31 28 28 26 25 25 26 28 27 27 29 30 33 36 37 37 39 42 44 47 50 53 55 55 55 57 57 57 58 58 57 53 48 43 38 31 28 28 30 33 34 38 45 52 56 58 61 61 62 66 68 68 73 75 71 71 72 75 79 75 71
138 198 239 84 5 302 277 284 291 293 287 277 211 244 267 271 215 155 105 77 58 42 40 39 33 27 23 26 27 27 38 41 39 42 38 35 34 33 33 31 30 29 30 32 31 32 33 32 35 38 39 41 42 46 50 53 57 59 60 61 60 59 59 57 57 59 60 60 56 52 48 43 40 37 35 36 38 41 45 50 54 56 59 58 56 62 69 70 71 71 70 70 68 67 71 72 71
194 223 14 85 273 292 280 284 294 288 278 275 268 274 284 288 266 109 68 48 39 30 27 29 28 28 27 29 33 35 43 45 44 45 40 37 36 35 35 34 34 34 35 36 36 37 38 38 41 42 43 43 44 51 56 59 63 63 62 63 62 60 60 58 58 59 60 60 58 55 52 48 44 40 38 38 40 43 46 48 50 53 53 50 52 60 66 68 68 66 66 68 68 68 70 70 71
337 318 44 336 266 253 228 269 288 287 282 280 280 284 284 271 255 79 46 26 23 17 16 23 24 23 21 25 36 45 47 45 44 43 39 40 38 36 35 33 34 36 37 39 40 41 43 44 46 48 49 51 54 58 61 62 64 64 63 63 63 61 60 58 56 56 56 56 55 54 53 50 47 45 41 39 39 41 44 46 47 50 49 42 45 53 57 61 62 62 62 62 64 68 69 67 68
90 198 199 235 286 273 272 279 281 280 280 283 291 294 290 290 37 70 59 35 26 15 14 23 23 21 20 23 32 42 46 46 46 45 45 45 41 37 36 35 36 38 40 42 44 45 48 49 50 51 52 56 58 59 59 59 60 61 61 61 62 62 61 59 57 55 54 53 51 50 50 49 47 46 43 40 39 38 41 44 45 48 47 39 37 42 48 53 54 55 56 56 58 62 64 63 63
234 238 231 207 215 257 280 270 240 249 268 277 288 289 291 71 62 76 75 51 38 27 18 23 26 25 26 29 34 40 46 50 49 51 51 48 42 34 32 37 41 45 48 50 51 53 54 51 49 48 47 47 47 48 50 51 52 55 55 53 54 56 57 58 58 56 54 52 51 49 47 46 46 45 43 39 38 38 39 42 44 46 45 38 31 30 37 41 42 45 49 50 53 56 57 58 58
278 267 257 253 246 247 269 263 217 201 255 263 273 279 285 82 85 81 74 55 45 36 25 27 31 30 32 36 41 45 49 51 49 50 47 43 39 33 33 42 49 53 57 58 59 58 55 51 48 46 44 42 40 39 41 43 47 51 51 49 50 49 49 51 52 52 49 48 47 47 45 45 45 45 45 41 38 37 39 43 44 44 43 41 33 24 25 30 32 35 40 42 45 49 50 51 53
Height
842 842 841 841 841 842 842 839 848 850 851 856 845 845 848 842 844 846 845 843 841 839 838 840 839 838 838 838 836 833 832 833 834 838 840 832 828 830 829 830 829 830 830 830 831 831 832 833 833 834 835 836 837 838 839 840 841 841 842 842 843 843 844 845 845 846 846 847 847 847 848 848 848 848 849 848 848 848 848 848 849 849 850 850 850 850 849 849 849 849 849 849 850 849 849 849 849
842 842 841 841 841 842 842 841 850 854 856 856 846 849 849 842 845 845 844 845 843 840 839 839 838 838 838 836 834 834 833 830 830 831 831 829 829 830 830 831 830 831 831 831 831 832 833 833 834 834 835 836 837 838 839 840 841 841 842 843 843 843 844 844 845 846 846 847 847 847 848 848 848 848 849 849 849 849 849 849 848 849 849 850 850 850 850 850 849 849 849 849 849 849 849 849 849
841 841 842 842 841 841 841 844 849 854 857 854 848 851 851 846 845 842 841 842 841 839 840 839 838 837 837 837 835 835 833 829 829 829 829 829 830 831 832 832 832 832 832 832 832 832 833 834 834 835 836 837 838 839 840 841 841 842 843 843 843 844 844 844 845 845 846 846 846 847 847 848 848 848 849 849 849 849 849 849 848 848 848 849 849 850 850 850 849 849 849 848 849 848 848 848 848
841 840 842 840 841 841 843 847 846 848 852 849 850 852 850 847 843 841 841 840 839 840 841 839 839 836 835 838 835 834 833 828 829 829 830 831 832 832 832 832 833 834 833 833 833 834 834 834 835 836 837 838 839 839 840 841 841 842 842 843 843 843 844 844 844 845 845 845 846 846 846 847 847 848 848 848 848 848 848 848 848 848 848 848 848 849 849 849 849 849 848 848 848 848 848 848 848
840 840 842 840 841 842 842 848 847 847 847 845 851 854 851 847 843 842 840 838 838 840 841 839 840 836 835 836 833 834 832 829 830 831 832 833 833 833 833 833 834 834 834 834 835 835 836 836 836 837 838 838 839 840 840 841 841 842 842 842 842 843 843 843 844 844 845 845 845 845 845 846 846 847 847 847 848 848 848 847 847 847 847 847 847 848 848 848 849 849 848 848 848 848 848 847 847
841 841 841 840 841 842 844 850 850 848 844 842 847 851 850 846 843 843 839 836 838 840 841 840 840 838 837 834 832 833 832 832 833 833 834 834 833 833 833 834 834 835 835 835 835 836 836 836 837 838 839 839 840 840 841 841 842 842 842 842 842 843 843 843 844 844 844 844 844 845 845 845 845 846 846 846 847 847 847 847 847 847 847 847 847 847 847 847 848 848 848 847 848 848 847 847 847
841 842 842 843 843 844 846 848 846 845 845 842 842 845 846 844 844 843 839 837 839 840 841 840 839 839 839 835 834 834 834 835 834 835 835 834 834 834 834 834 835 835 835 835 835 836 836 836 837 838 839 840 841 841 842 842 842 842 843 843 843 843 843 843 843 843 843 843 844 844 844 844 845 845 845 846 846 846 846 846 846 846 846 846 846 846 846 846 846 847 847 847 847 847 847 847 846
841 842 844 845 847 848 849 849 846 843 845 843 841 842 844 843 844 843 840 839 839 839 840 840 838 840 839 836 836 835 835 836 835 836 835 835 835 834 834 835 835 835 835 835 835 835 836 836 837 838 839 840 840 841 841 842 842 842 842 843 843 843 843 843 843 843 843 843 843 843 843 843 844 844 844 845 845 845 845 846 846 845 846 846 846 846 845 845 846 846 846 846 846 846 846 846 846
841 843 846 847 850 852 852 851 847 843 844 844 842 842 843 844 845 844 841 838 839 840 840 839 839 840 838 836 836 834 835 836 836 836 835 835 835 835 835 835 835 835 835 835 835 835 835 836 836 837 838 839 840 840 841 841 841 842 842 842 843 843 842 842 842 842 842 843 843 843 843 843 843 843 843 844 844 844 844 845 845 845 845 845 845 845 845 845 845 845 845 845 845 845 846 846 845
842 844 847 850 852 854 854 848 844 844 844 844 843 841 841 843 844 844 842 839 840 841 840 840 839 839 838 837 836 835 836 836 835 835 835 835 835 835 835 835 835 835 835 835 835 835 835 836 836 837 837 838 839 840 840 841 841 841 842 841 842 842 842 842 842 842 842 842 842 842 842 842 842 842 842 842 843 843 843 843 844 844 844 844 843 844 844 844 844 844 844 844 844 844 844 845 844
844 845 846 853 856 856 852 844 842 842 841 843 842 840 840 842 844 843 843 841 840 841 841 841 840 839 839 837 836 836 836 836 835 835 835 835 835 836 835 835 835 835 835 835 836 835 835 836 836 837 837 838 838 839 839 840 840 840 841 841 841 841 841 841 841 842 842 842 842 842 842 841 842 841 841 841 841 842 842 842 842 842 842 842 842 842 842 842 842 842 843 843 843 843 843 844 843
846 846 846 854 855 850 848 845 843 840 839 841 841 840 842 843 843 843 843 843 842 842 841 841 841 841 839 837 837 836 836 836 835 835 835 835 835 835 836 836 836 836 836 835 836 836 836 836 836 836 837 837 838 838 838 839 839 839 839 840 840 840 840 840 841 841 841 841 841 840 840 840 841 840 840 841 841 841 841 841 841 841 841 841 841 841 841 841 841 841 841 841 841 842 842 842 842
843 844 845 851 850 845 846 847 845 844 841 838 840 842 844 843 842 843 843 845 844 844 842 841 841 841 839 837 837 836 835 836 835 835 835 835 835 836 836 836 836 836 836 836 836 836 836 836 836 836 837 837 837 838 838 838 838 838 838 838 838 839 839 839 839 840 840 840 839 839 839 839 839 839 839 839 840 840 840 840 840 841 841 840 840 840 840 840 840 840 840 840 840 840 841 840 841
841 842 843 848 850 846 846 846 844 846 841 835 840 843 843 843 843 843 844 845 843 842 842 841 840 840 839 837 837 836 836 837 836 836 835 835 836 836 836 836 836 836 836 836 836 836 836 836 836 837 837 837 837 837 837 837 837 837 837 837 837 837 837 838 838 838 838 838 838 838 838 838 838 837 837 837 838 839 839 839 839 840 840 839 839 838 838 839 839 839 839 839 839 839 839 839 840
841 841 843 847 850 847 845 845 844 847 840 835 843 844 842 843 844 844 844 845 842 841 842 841 840 841 840 839 837 836 838 838 837 836 836 836 836 836 836 836 836 836 836 836 837 836 836 837 836 837 837 837 837 837 837 836 836 836 836 836 836 836 836 836 836 837 837 837 837 837 837 836 836 836 835 836 836 837 838 838 838 838 837 838 838 837 837 837 838 838 838 838 838 838 838 837 838
841 841 845 848 848 848 845 845 846 847 841 837 844 844 843 842 843 844 843 844 842 840 841 841 841 841 840 838 837 837 838 838 838 837 837 837 837 837 837 837 837 836 836 836 836 836 836 837 837 837 837 837 837 837 837 836 836 836 836 835 835 835 835 835 835 835 835 835 835 835 836 835 835 834 834 834 835 835 836 836 836 836 836 836 836 836 836 836 836 836 836 837 837 836 836 836 836
842 844 850 850 848 848 845 845 846 845 841 840 843 843 844 843 841 843 843 843 842 840 840 839 839 840 839 837 837 838 838 838 838 838 838 838 837 837 837 837 837 837 837 836 836 836 836 836 836 836 836 837 836 836 836 836 836 835 835 835 834 834 834 834 834 834 834 833 833 834 834 834 833 833 833 833 833 833 834 834 834 834 834 834 834 834 835 835 835 835 834 835 835 834 834 834 833
844 846 852 850 846 846 842 842 842 842 842 842 843 844 846 844 841 841 842 841 840 840 838 837 838 838 837 837 837 838 838 838 838 838 838 837 837 837 837 837 837 837 837 837 836 836 835 835 835 835 836 836 835 835 835 835 835 834 834 834 833 833 833 833 832 832 832 832 832 832 832 832 832 832 832 832 832 832 832 832 832 832 832 832 832 832 833 833 833 833 832 832 832 832 832 832 832
843 846 851 846 841 842 840 840 841 843 844 843 843 845 847 845 843 843 844 841 839 841 837 835 837 836 835 836 837 838 838 839 838 838 838 837 837 837 836 836 836 836 837 836 836 835 835 835 834 834 834 834 834 834 834 834 834 833 833 832 832 831 831 831 831 831 831 831 830 831 831 831 830 830 830 830 830 830 830 830 830 830 830 830 830 831 831 832 832 831 831 831 830 831 830 831 831
842 846 849 841 838 841 841 842 843 843 845 845 844 847 848 845 844 845 845 843 841 841 837 835 836 834 834 834 836 838 838 839 839 839 838 837 837 837 836 836 836 836 836 835 835 834 834 834 833 833 833 832 832 832 832 832 832 832 831 831 830 830 830 830 830 829 829 829 829 829 829 829 829 829 829 829 828 828 829 829 828 828 828 829 829 829 829 829 829 829 828 829 829 829 829 829 830
843 845 844 838 840 843 841 842 843 844 846 846 845 848 848 843 845 846 845 846 842 837 834 836 837 834 833 833 835 837 837 837 837 838 837 837 836 836 836 835 835 835 834 834 834 833 832 832 832 832 831 831 831 831 831 831 830 830 830 829 829 828 828 828 828 828 828 827 827 827 827 827 827 827 827 827 827 827 827 827 827 827 827 827 827 827 827 827 827 826 826 826 827 828 827 827 828
845 844 841 840 843 844 841 842 844 845 846 846 846 847 845 843 845 844 845 847 840 833 833 835 835 834 833 833 835 836 836 836 836 836 835 835 835 835 835 835 834 834 833 833 832 832 831 831 831 831 830 830 830 830 829 829 829 829 829 828 827 827 826 826 826 826 826 826 826 825 825 825 825 825 825 826 826 826 826 825 825 825 825 824 825 825 824 825 824 824 823 823 825 825 825 825 825
846 842 843 844 844 844 841 842 845 845 846 845 844 844 843 845 844 840 842 842 835 831 833 834 834 834 834 834 835 835 835 834 834 834 834 834 834 834 834 833 833 833 832 832 831 831 830 830 830 830 830 829 829 828 828 828 828 828 827 827 826 826 825 825 825 825 824 824 825 824 824 823 824 824 824 824 825 825 825 824 823 823 822 822 822 822 822 822 821 820 820 820 821 822 822 822 822
847 844 844 845 845 845 842 843 845 845 845 844 843 844 845 845 842 838 838 835 832 832 832 833 834 834 835 835 834 833 833 833 832 833 833 833 833 833 833 832 832 831 831 831 830 830 830 829 829 829 829 828 828 827 827 827 827 826 826 825 825 824 824 824 823 823 823 823 823 823 823 823 822 823 823 823 823 823 823 822 821 821 820 820 820 819 819 819 818 818 818 818 818 819 819 819 819
847 845 844 846 846 845 843 845 845 845 845 844 845 845 842 840 839 836 833 831 830 831 830 831 833 833 834 833 832 832 831 831 831 832 833 833 833 833 832 832 831 831 831 831 830 830 829 829 828 828 828 827 826 826 826 826 825 825 825 824 824 824 823 822 822 822 822 822 822 821 821 821 821 821 821 821 821 821 820 820 819 819 818 818 818 817 817 817 816 816 816 816 816 816 816 816 816
845 845 846 846 845 844 844 845 844 845 844 845 845 842 837 835 837 834 827 827 828 828 829 830 831 831 830 830 830 829 829 829 830 831 832 832 833 833 833 833 832 832 831 831 830 829 829 829 828 827 827 826 826 825 825 824 824 824 824 823 823 822 822 822 821 821 820 820 820 820 820 819 819 819 819 819 820 819 818 818 818 817 817 816 816 815 815 815 814 814 814 814 814 814 813 812 813
846 847 847 846 845 844 845 844 843 844 844 844 844 839 833 833 838 834 825 826 828 828 828 827 828 829 828 827 827 827 828 828 829 830 830 831 831 833 833 833 833 832 831 831 830 829 829 828 828 827 826 826 825 825 824 824 823 823 822 822 821 821 821 821 820 820 819 819 818 818 818 818 818 818 818 818 818 818 817 817 817 816 815 815 814 813 813 813 813 813 812 811 811 810 810 810 810
849 849 847 845 844 844 843 842 843 844 843 841 842 840 834 835 839 831 824 826 827 828 827 826 827 826 826 826 826 826 827 828 829 830 830 830 831 832 833 833 833 832 831 831 830 830 829 829 828 827 826 826 825 825 824 824 823 822 822 821 820 820 820 819 819 818 817 817 816 816 816 816 817 816 817 817 817 816 816 816 816 815 814 814 813 812 811 811 811 811 810 809 808 808 807 808 808
850 850 848 844 842 841 838 840 844 846 843 840 843 840 829 831 833 826 825 827 828 829 827 825 826 824 825 825 826 826 826 828 829 830 831 832 833 833 834 833 833 833 832 832 831 830 830 829 828 828 827 827 826 825 825 824 823 822 821 820 819 819 819 818 818 817 816 815 815 815 815 815 815 815 815 815 815 815 815 815 814 814 813 812 811 811 810 810 810 809 809 808 807 807 806 805 805
848 848 849 846 842 839 838 842 845 844 843 841 844 839 822 822 825 824 829 830 828 828 824 823 823 823 824 824 825 825 826 828 828 831 833 834 835 835 835 835 834 834 834 833 832 831 830 830 829 829 828 828 827 826 825 824 822 822 821 820 819 818 818 817 817 816 815 814 814 814 814 814 814 814 814 814 814 814 814 814 813 813 811 810 809 809 809 809 809 808 808 807 806 806 805 804 803
848 848 848 848 844 839 839 843 843 842 843 842 845 841 824 819 822 823 829 831 829 826 822 821 820 819 820 820 822 822 823 827 828 831 832 834 835 835 836 835 835 835 835 834 833 833 832 831 830 830 829 829 828 827 825 824 822 821 820 819 818 818 817 817 816 815 814 814 813 813 813 813 813 813 813 813 813 813 813 812 812 811 810 809 808 808 808 808 808 807 807 806 805 805 803 803 802
848 850 844 844 844 838 836 841 843 841 842 843 844 839 825 818 819 822 828 829 828 827 823 820 818 816 817 817 819 819 821 825 828 831 832 834 835 835 836 836 836 836 835 835 834 834 833 832 831 831 830 829 828 827 825 824 822 821 819 818 817 817 817 816 816 815 814 813 813 812 812 812 812 813 813 812 812 812 812 811 810 809 808 808 807 807 807 807 807 806 806 805 804 804 803 802 800
847 850 843 840 843 838 835 840 846 843 841 844 843 839 830 820 818 821 824 825 825 826 822 819 816 815 815 816 817 818 820 824 828 832 834 835 836 836 837 836 836 836 836 836 835 835 834 833 832 831 831 830 828 827 825 824 823 821 819 818 817 817 817 816 816 815 814 813 812 812 812 812 812 812 812 812 811 811 810 810 809 808 807 806 806 806 806 806 805 805 805 804 804 803 802 801 800
841 847 844 841 844 843 838 839 845 846 843 843 842 842 836 825 818 818 819 820 822 823 820 816 815 813 813 814 815 817 819 822 828 833 835 837 837 838 838 838 838 837 837 836 836 835 834 833 832 831 831 830 829 827 825 824 823 821 820 819 818 817 817 816 816 815 814 814 813 812 812 812 812 811 811 811 811 810 809 809 808 807 806 805 805 805 805 804 804 803 803 803 803 802 802 801 800
839 845 843 842 844 844 840 837 842 845 844 844 842 839 834 827 821 817 815 815 817 817 816 814 813 812 812 813 814 816 817 822 830 835 837 838 839 839 839 839 838 838 838 837 836 835 834 834 832 832 831 830 829 827 825 825 824 822 821 820 819 818 817 816 816 815 815 814 813 813 812 811 811 811 811 810 810 809 808 807 807 806 805 804 803 803 803 803 803 802 802 802 802 802 801 800 799
846 848 848 847 845 840 835 835 839 844 845 843 840 836 831 827 823 818 815 814 815 813 812 812 811 810 810 812 813 815 818 824 833 836 838 839 839 840 840 839 839 839 838 837 837 836 834 834 833 832 831 829 828 826 825 825 824 823 822 820 819 818 818 817 816 815 815 814 814 813 812 812 811 811 811 810 809 808 807 806 806 805 804 803 802 802 802 802 801 801 801 801 801 800 800 799 798
850 851 850 849 847 839 832 833 839 845 845 839 836 835 832 828 824 819 815 814 815 813 811 810 808 808 810 811 814 816 821 829 835 837 838 839 839 839 839 839 839 839 838 837 836 836 835 834 833 831 830 828 827 826 825 825 824 824 822 821 819 818 818 817 816 816 815 815 814 813 813 812 811 811 810 809 808 807 806 806 805 804 803 802 801 801 800 800 800 800 800 800 800 799 799 798 798
851 852 850 847 846 839 832 833 838 845 845 837 832 832 830 828 825 818 815 814 815 812 811 809 808 809 811 812 816 819 824 830 833 835 837 838 838 838 838 838 838 838 837 836 835 835 834 833 832 830 829 828 827 827 826 826 825 824 823 821 820 819 818 817 816 816 815 815 814 814 813 812 811 811 810 809 808 807 806 805 804 803 801 801 801 801 800 799 799 798 798 799 799 798 797 797 797
851 851 851 848 842 838 835 834 839 847 845 835 832 833 830 826 822 817 815 815 813 811 811 812 812 813 813 816 821 824 826 829 832 835 836 837 838 837 837 837 837 837 836 835 834 834 833 832 831 830 829 829 828 827 826 826 825 824 823 821 820 819 818 818 817 817 816 815 815 814 813 812 811 811 810 809 808 807 806 805 803 802 801 800 800 800 799 799 798 798 798 798 798 797 796 796 795
850 849 849 845 840 841 840 836 841 847 844 840 839 836 827 820 817 815 814 814 813 812 813 815 817 818 820 824 828 830 831 832 834 837 838 838 839 838 838 838 838 837 837 836 835 834 833 833 832 831 830 829 828 827 826 826 825 824 823 822 820 820 819 818 818 817 817 816 815 814 813 812 812 811 810 809 808 807 805 804 803 802 801 800 800 800 799 799 798 797 797 797 797 797 796 795 794
846 847 846 843 839 842 842 838 842 842 840 845 841 828 816 814 816 814 813 816 816 816 816 815 817 822 825 828 833 836 837 838 839 840 841 841 841 841 841 841 840 839 838 838 837 836 835 835 834 832 832 830 829 828 827 826 825 825 824 823 822 821 820 819 819 819 818 817 816 815 814 813 812 811 810 809 808 807 805 804 803 802 801 800 800 800 799 799 798 797 797 797 796 796 795 795 794
841 842 843 842 840 842 842 842 846 840 835 843 842 830 817 815 820 816 811 813 814 816 818 814 815 822 827 830 835 839 841 843 844 844 845 844 844 844 843 842 842 841 840 840 839 838 837 836 835 834 832 831 830 828 827 826 825 825 824 824 823 823 822 821 821 821 820 819 818 817 816 815 813 812 811 810 809 808 806 805 804 803 802 800 800 800 800 799 798 797 797 796 796 795 795 794 794
840 840 842 843 843 844 845 845 847 840 834 839 846 842 827 817 819 817 812 814 813 814 817 814 815 822 829 834 839 842 843 845 845 846 847 846 846 846 845 844 844 843 842 842 841 839 838 837 836 835 834 832 831 830 828 827 826 826 825 825 825 825 825 825 825 824 822 821 820 819 818 817 815 814 812 811 810 809 808 806 805 804 803 801 801 801 800 799 798 797 796 796 795 794 794 793 793
840 845 848 845 845 846 845 846 845 840 839 841 841 841 832 820 818 818 816 818 816 815 816 814 818 826 833 839 843 845 846 846 846 847 847 847 847 847 847 847 846 846 845 844 843 842 841 840 838 837 836 835 833 832 830 829 828 828 827 827 827 827 827 827 827 826 824 823 822 821 820 818 817 815 814 812 811 810 809 808 806 805 804 802 801 801 800 800 799 798 797 795 794 793 792 792 792
841 849 851 846 847 847 845 845 842 842 848 843 833 836 834 820 816 822 821 818 816 817 817 816 821 830 837 841 845 847 848 848 848 848 848 848 849 850 849 849 849 848 848 847 846 845 844 843 841 840 839 837 836 835 833 831 830 829 829 829 829 829 829 829 829 827 826 825 824 823 821 820 818 817 816 814 813 812 810 809 808 806 805 803 803 802 801 800 799 798 797 795 794 793 792 792 792
845 851 851 848 849 848 848 847 843 846 853 842 827 830 831 817 810 819 820 816 816 817 817 817 824 834 839 842 846 847 847 848 849 849 851 852 853 853 853 853 852 851 851 850 849 848 847 846 844 842 841 840 839 837 836 834 832 831 831 831 831 831 831 830 830 829 828 828 826 825 823 822 820 819 817 816 814 813 812 811 809 808 806 805 804 803 803 801 800 799 797 796 794 793 793 792 792
851 850 846 843 845 847 850 848 846 850 844 830 821 823 830 824 812 811 815 815 817 819 818 816 821 833 841 843 845 846 847 849 852 853 855 857 857 857 857 856 856 855 854 853 852 851 850 849 847 846 844 843 842 840 839 837 835 834 833 832 833 834 833 832 831 831 830 830 829 827 826 824 823 821 819 818 816 814 813 812 810 809 807 806 806 804 804 803 801 800 798 797 795 794 793 793 793
850 845 841 839 838 842 847 847 851 848 829 820 824 825 832 831 815 809 816 819 818 819 820 817 820 830 838 842 845 848 852 854 856 858 858 859 860 859 859 859 858 858 857 856 855 854 853 852 851 849 847 846 845 843 842 840 839 837 836 835 834 834 835 835 834 833 833 832 831 830 829 827 825 823 821 819 818 816 815 813 811 810 809 807 807 806 805 804 803 801 799 797 796 795 795 794 793
848 843 841 839 833 834 839 837 839 834 822 824 833 834 835 826 812 809 813 817 819 821 826 829 832 835 839 845 851 854 857 858 859 860 861 862 862 862 863 862 861 861 860 859 858 857 856 855 853 852 850 849 848 847 845 843 842 841 840 839 837 836 835 836 836 836 835 834 834 833 831 830 827 825 824 822 821 819 817 815 813 811 810 809 808 807 806 805 804 802 800 799 797 797 796 795 795
845 839 838 837 835 842 842 830 828 827 821 827 837 840 835 819 810 812 813 820 831 836 841 846 848 849 849 852 856 857 859 861 862 863 864 865 866 866 866 865 865 864 863 862 861 860 859 858 856 855 853 853 851 850 848 846 845 844 843 842 840 839 837 837 837 837 837 836 836 835 833 832 831 829 828 826 824 822 820 818 816 814 812 811 810 809 808 806 805 804 802 801 799 799 798 797 796
842 839 838 836 835 844 842 829 831 833 824 829 842 841 827 814 813 816 820 833 844 847 850 852 852 854 856 856 857 859 862 864 865 866 867 868 869 869 869 869 868 868 867 866 865 864 863 862 860 859 857 856 854 853 851 850 848 847 846 845 843 842 841 839 838 838 838 837 837 836 835 835 834 833 832 830 827 825 822 820 818 816 814 813 812 810 809 807 806 805 804 803 802 801 800 799 798
843 844 840 838 835 836 838 832 832 838 834 830 838 833 814 808 814 818 826 837 844 847 848 849 852 853 854 856 858 862 864 866 868 869 870 871 871 872 871 871 871 871 870 869 868 868 867 866 864 862 861 860 858 857 855 854 852 850 849 848 847 845 844 842 841 840 839 838 838 837 837 837 836 835 834 832 830 827 824 822 820 819 817 816 814 812 810 809 808 807 806 805 804 803 801 800 800
843 844 837 840 842 837 839 836 830 841 845 827 823 824 810 807 813 815 824 836 844 849 849 849 854 855 855 858 861 865 868 870 871 872 874 874 874 875 874 874 874 873 873 872 872 871 870 869 868 866 865 863 862 860 859 857 856 854 852 851 850 849 848 846 844 843 841 840 839 838 838 838 837 837 836 835 832 829 827 824 822 821 819 818 817 815 813 811 810 809 808 807 806 805 803 802 802
839 840 838 842 847 841 843 849 842 845 848 826 815 821 816 813 814 816 828 841 849 855 854 854 857 857 859 863 867 871 872 874 875 875 877 877 877 878 877 877 877 877 876 876 875 874 873 873 871 870 868 867 866 864 863 861 859 858 856 855 854 852 851 850 848 847 844 842 841 840 839 839 839 839 839 838 835 832 829 827 825 823 821 821 820 818 816 814 813 812 811 810 808 807 806 805 804
842 842 843 843 846 843 843 854 853 849 850 833 818 819 819 814 813 824 846 857 859 861 859 858 861 863 866 868 871 875 876 877 878 878 879 880 880 881 880 880 880 879 879 878 878 877 876 876 874 873 872 871 870 868 867 865 863 862 861 859 857 856 854 854 852 851 848 846 844 843 841 841 840 841 841 840 838 835 832 829 827 826 825 825 823 821 819 817 816 815 814 813 811 810 808 807 806
847 846 845 843 847 845 842 848 849 850 852 841 830 823 816 821 831 844 863 870 869 870 866 865 870 872 873 874 875 877 878 880 881 882 883 883 884 884 883 883 882 882 882 880 880 880 879 879 878 877 876 875 874 872 870 869 867 866 864 862 861 859 857 856 855 854 852 849 848 847 845 843 842 842 842 842 841 839 836 833 830 829 828 828 827 825 823 821 819 818 817 816 815 813 811 810 809
841 841 844 846 848 848 848 847 843 849 851 844 847 834 815 836 860 862 870 877 877 877 875 874 878 880 880 880 881 881 882 883 884 885 886 886 886 886 886 886 885 884 884 882 882 882 881 882 881 880 880 878 877 876 874 873 871 869 867 866 864 862 860 859 857 856 854 852 851 850 849 847 845 843 843 844 845 843 840 837 834 832 831 831 830 828 826 824 823 822 821 819 818 816 814 813 812
840 840 841 842 844 848 856 853 844 850 849 842 852 839 819 847 872 869 875 882 882 884 882 881 884 885 886 885 885 886 885 886 887 887 888 888 888 888 888 888 887 886 886 885 884 884 883 883 883 882 882 881 880 880 878 877 875 873 871 869 868 866 864 862 860 858 857 855 853 852 851 850 848 845 843 844 847 847 844 840 837 835 834 833 832 832 830 828 827 825 823 822 820 819 817 816 815